Location: Ocean City
(38.3360°N, 75.0850°W)
Time: 01:58:15
(UTC-05:00)

Explorer 11/Cluster Stage 4 - Pass Details

Date: 18 November 2019
Orbit: 467 x 1259 km, 28.8° (Epoch: 08 December)

Event Time Altitude Azimuth Distance (km) Brightness Sun altitude
Rises 18:20:00 0° 202° (SSW) 3,024 10.1 -18.4°
Reaches altitude 10° 18:23:53 10° 170° (S) 2,306 9.0 -19.2°
Maximum altitude 18:25:52 12° 149° (SSE) 2,272 8.7 -19.6°
Enters shadow 18:26:40 12° 141° (SE) 2,333 8.7 -19.7°
Drops below altitude 10° 18:27:59 10° 128° (SE) 2,512 - -20.0°
Sets 18:32:44 0° 100° (E) 3,684 - -20.9°
